DRAGON CRS-16

Last updated on Tue Jan 15 2019 00:02:10 GMT+0000 (Coordinated Universal Time)

1 43827U 18101A 19013.58677685 .00000299 00000-0 11878-4 0 9990 2 43827 51.6425 50.2106 0002416 284.1251 212.8292 15.53757701151238
UTC large
Height (km)
Speed (km/s)
/
Latitude / Longitude
Inclination (degrees)
Orbital Period (minutes)
Azimuth
Elevation
Range (km)
Doppler Factor

Next 0 passes for location: London (51.5072 / 0.1276)

Sorry there are no passes over London.